Location: Clifton Park
(41.4873°N, 81.8024°W)
Time: 21:55:08
(UTC+00:00)

Cosmos 2227 - Pass Details

Date: 21 January 2020
Orbit: 836 x 860 km, 71.0° (Epoch: 27 February)

Event Time Altitude Azimuth Distance (km) Brightness Sun altitude
Exits shadow 11:44:22 - 330° (NNW) 2,828 6.5 -12.0°
Reaches altitude 10° 11:45:19 10° 328° (NNW) 2,469 6.2 -11.8°
Maximum altitude 11:50:50 56° 251° (WSW) 995 4.3 -10.8°
Drops below altitude 10° 11:56:17 10° 175° (S) 2,442 6.9 -9.9°
Sets 11:58:45 0° 171° (S) 3,370 7.7 -9.4°
